GW2484 Weather Reports


Display with metric or nautical units.
time (UTC)temp
F
wind
direction
speed
MPH
gust
MPH
rain 1hr
in
rain 24hr
in
rain mn
in
humidity
%
barometer
mb
20260901212506 101 162 5.0 10.0 0.00 0.00 0.00 29 1014.1
20260901212014 100 189 5.0 10.0 0.00 0.00 0.00 31 1014.1
20260901211515 100 185 2.0 9.0 0.00 0.00 0.00 32 1014.2
20260901211013 102 248 4.0 11.0 0.00 0.00 0.00 31 1014.2
20260901210512 102 213 6.0 11.0 0.00 0.00 0.00 29 1014.3
20260901210010 102 199 4.0 8.0 0.00 0.00 0.00 31 1014.4
20260901205516 101 179 2.0 6.0 0.00 0.00 0.00 32 1014.4
20260901205012 100 193 1.0 9.0 0.00 0.00 0.00 34 1014.5
20260901204507 100 116 2.0 9.0 0.00 0.00 0.00 33 1014.6
20260901204015 101 152 4.0 13.0 0.00 0.00 0.00 32 1014.6
20260901203511 102 117 5.0 12.0 0.00 0.00 0.00 31 1014.7
20260901203048 101 247 3.0 11.0 0.00 0.00 0.00 35 1014.7
20260901202511 100 200 6.0 11.0 0.00 0.00 0.00 33 1014.9
20260901202006 100 191 5.0 10.0 0.00 0.00 0.00 33 1015.0
20260901201533 100 166 1.0 9.0 0.00 0.00 0.00 35 1015.1
20260901201022 100 121 3.0 11.0 0.00 0.00 0.00 35 1015.2
20260901200507 100 136 4.0 11.0 0.00 0.00 0.00 33 1015.3
20260901200033 100 208 6.0 11.0 0.00 0.00 0.00 34 1015.4
20260901195512 101 249 5.0 10.0 0.00 0.00 0.00 33 1015.4
20260901195017 101 162 3.0 9.0 0.00 0.00 0.00 35 1015.5
20260901194536 101 125 2.0 9.0 0.00 0.00 0.00 35 1015.5
20260901194009 100 137 5.0 12.0 0.00 0.00 0.00 35 1015.6
20260901193515 100 235 7.0 12.0 0.00 0.00 0.00 37 1015.7
20260901193024 100 229 1.0 7.0 0.00 0.00 0.00 39 1015.8
20260901192508 99 150 2.0 9.0 0.00 0.00 0.00 39 1015.8
20260901192014 98 231 3.0 9.0 0.00 0.00 0.00 40 1015.9
20260901191518 99 173 4.0 9.0 0.00 0.00 0.00 38 1016.0
20260901191018 100 279 2.0 6.0 0.00 0.00 0.00 38 1015.9
20260901190513 99 250 2.0 6.0 0.00 0.00 0.00 38 1016.0
20260901190015 100 169 1.0 6.0 0.00 0.00 0.00 38 1016.1
20260901185516 100 150 0.0 9.0 0.00 0.00 0.00 41 1016.1
20260901185015 98 150 5.0 9.0 0.00 0.00 0.00 39 1016.2
20260901184524 99 143 2.0 8.0 0.00 0.00 0.00 40 1016.3
20260901184017 98 202 2.0 7.0 0.00 0.00 0.00 41 1016.3
20260901183510 98 319 1.0 4.0 0.00 0.00 0.00 39 1016.4
20260901183039 98 213 2.0 4.0 0.00 0.00 0.00 44 1016.4
20260901182515 97 249 1.0 5.0 0.00 0.00 0.00 42 1016.5
20260901182010 96 248 3.0 5.0 0.00 0.00 0.00 42 1016.7
20260901181534 96 247 3.0 7.0 0.00 0.00 0.00 42 1016.7
20260901181014 97 235 3.0 6.0 0.00 0.00 0.00 43 1016.7
20260901180508 96 160 2.0 4.0 0.00 0.00 0.00 43 1016.8
20260901180031 96 216 2.0 7.0 0.00 0.00 0.00 42 1016.8
20260901175514 96 195 1.0 8.0 0.00 0.00 0.00 42 1016.9
20260901175015 97 208 3.0 8.0 0.00 0.00 0.00 42 1017.0
20260901174528 97 240 4.0 7.0 0.00 0.00 0.00 43 1017.1
20260901174016 97 192 4.0 7.0 0.00 0.00 0.00 42 1017.2
20260901173521 97 231 2.0 8.0 0.00 0.00 0.00 42 1017.2
20260901173045 97 221 4.0 11.0 0.00 0.00 0.00 42 1017.3
20260901172507 97 214 7.0 11.0 0.00 0.00 0.00 42 1017.3
20260901172007 97 247 3.0 8.0 0.00 0.00 0.00 44 1017.4
20260901171513 97 301 2.0 9.0 0.00 0.00 0.00 43 1017.4
20260901171008 97 288 2.0 9.0 0.00 0.00 0.00 46 1017.4
20260901170503 96 321 3.0 8.0 0.00 0.00 0.00 45 1017.5
20260901170012 96 217 2.0 6.0 0.00 0.00 0.00 1017.5
20260901165506 96 159 2.0 6.0 0.00 0.00 0.00 1017.5
20260901165003 96 261 3.0 8.0 0.00 0.00 0.00 48 1017.7
20260901164514 95 287 2.0 8.0 0.00 0.00 0.00 48 1017.7
20260901164003 95 212 3.0 7.0 0.00 0.00 0.00 51 1017.8
20260901163512 94 262 1.0 7.0 0.00 0.00 0.00 51 1017.9
20260901163011 93 199 3.0 7.0 0.00 0.00 0.00 50 1018.0
20260901162504 93 241 3.0 9.0 0.00 0.00 0.00 50 1018.1
20260901162011 93 204 4.0 9.0 0.00 0.00 0.00 51 1018.1
20260901161511 93 233 2.0 9.0 0.00 0.00 0.00 53 1018.2
20260901161003 92 292 3.0 9.0 0.00 0.00 0.00 52 1018.1
20260901160507 92 246 3.0 10.0 0.00 0.00 0.00 52 1018.1
20260901160009 93 204 5.0 10.0 0.00 0.00 0.00 53 1018.1
20260901155510 92 228 1.0 8.0 0.00 0.00 0.00 53 1018.1
20260901155010 91 244 2.0 11.0 0.00 0.00 0.00 52 1018.1
20260901154504 91 194 3.0 11.0 0.00 0.00 0.00 53 1018.0
20260901154012 91 196 3.0 11.0 0.00 0.00 0.00 54 1018.0
20260901153508 91 248 5.0 11.0 0.00 0.00 0.00 54 1018.0
20260901153003 91 216 3.0 11.0 0.00 0.00 0.00 54 1017.9
20260901152512 90 196 5.0 11.0 0.00 0.00 0.00 53 1018.0
20260901152007 91 284 1.0 4.0 0.00 0.00 0.00 52 1018.0
20260901151518 90 204 2.0 5.0 0.00 0.00 0.00 56 1017.9
20260901151008 90 227 3.0 6.0 0.00 0.00 0.00 56 1018.0
20260901150511 90 240 2.0 8.0 0.00 0.00 0.00 55 1018.0
20260901150020 89 196 3.0 8.0 0.00 0.00 0.00 58 1018.0
20260901145508 88 195 2.0 6.0 0.00 0.00 0.00 58 1018.0
20260901145003 87 198 2.0 5.0 0.00 0.00 0.00 60 1018.1
20260901144523 86 198 2.0 5.0 0.00 0.00 0.00 60 1018.1
20260901144005 86 190 1.0 5.0 0.00 0.00 0.00 62 1018.1
20260901143512 86 196 2.0 6.0 0.00 0.00 0.00 60 1018.1
20260901143017 86 194 3.0 6.0 0.00 0.00 0.00 60 1018.1
20260901142504 85 216 2.0 3.0 0.00 0.00 0.00 61 1018.1
20260901142012 85 206 2.0 5.0 0.00 0.00 0.00 61 1018.1
20260901141512 85 199 3.0 5.0 0.00 0.00 0.00 60 1018.2
20260901141003 86 194 3.0 5.0 0.00 0.00 0.00 60 1018.2
20260901140514 86 160 3.0 6.0 0.00 0.00 0.00 60 1018.2
20260901140014 85 162 3.0 6.0 0.00 0.00 0.00 60 1018.2
20260901135514 85 196 2.0 4.0 0.00 0.00 0.00 61 1018.1
20260901135010 84 160 2.0 3.0 0.00 0.00 0.00 62 1018.1
20260901134508 84 165 1.0 6.0 0.00 0.00 0.00 63 1018.2
20260901134018 83 167 2.0 6.0 0.00 0.00 0.00 63 1018.0
20260901133511 83 179 2.0 6.0 0.00 0.00 0.00 64 1018.0
20260901133007 82 194 2.0 6.0 0.00 0.00 0.00 64 1018.1
20260901132511 82 204 2.0 6.0 0.00 0.00 0.00 64 1018.1
20260901132006 82 192 2.0 5.0 0.00 0.00 0.00 65 1018.1
20260901131523 81 179 1.0 5.0 0.00 0.00 0.00 65 1018.0
20260901131010 81 189 2.0 5.0 0.00 0.00 0.00 66 1017.9
20260901130506 81 168 2.0 5.0 0.00 0.00 0.00 66 1017.8
20260901130037 80 151 2.0 4.0 0.00 0.00 0.00 66 1017.7
20260901125509 80 173 2.0 4.0 0.00 0.00 0.00 67 1017.6
20260901125006 80 173 1.0 4.0 0.00 0.00 0.00 66 1017.6
20260901124526 80 183 2.0 4.0 0.00 0.00 0.00 67 1017.6
20260901124007 79 196 1.0 3.0 0.00 0.00 0.00 67 1017.6
20260901123515 79 181 1.0 3.0 0.00 0.00 0.00 67 1017.4
20260901123022 79 193 0.0 3.0 0.00 0.00 0.00 67 1017.4
20260901122508 79 162 1.0 3.0 0.00 0.00 0.00 67 1017.4
20260901122015 79 162 1.0 3.0 0.00 0.00 0.00 66 1017.4
20260901121520 79 160 1.0 2.0 0.00 0.00 0.00 66 1017.4
20260901121008 79 160 0.0 4.0 0.00 0.00 0.00 66 1017.3
20260901120514 79 160 1.0 4.0 0.00 0.00 0.00 66 1017.3
20260901120029 79 194 1.0 4.0 0.00 0.00 0.00 65 1017.2
20260901115516 80 193 2.0 4.0 0.00 0.00 0.00 65 1017.1
20260901115014 80 226 1.0 3.0 0.00 0.00 0.00 65 1017.1
20260901114511 80 227 0.0 3.0 0.00 0.00 0.00 64 1017.1
20260901114016 80 219 0.0 3.0 0.00 0.00 0.00 64 1017.1
20260901113511 80 221 1.0 3.0 0.00 0.00 0.00 63 1017.1
20260901113010 80 219 1.0 3.0 0.00 0.00 0.00 63 1017.0
20260901112513 81 212 1.0 4.0 0.00 0.00 0.00 63 1016.9
20260901112015 81 199 2.0 4.0 0.00 0.00 0.00 62 1016.8
20260901111532 81 219 1.0 3.0 0.00 0.00 0.00 62 1016.8
20260901111015 81 206 1.0 3.0 0.00 0.00 0.00 62 1016.8
20260901110511 81 202 2.0 7.0 0.00 0.00 0.00 61 1016.8
20260901110039 81 199 2.0 7.0 0.00 0.00 0.00 61 1016.7
20260901105513 81 196 1.0 6.0 0.00 0.00 0.00 61 1016.7
20260901105017 81 202 2.0 7.0 0.00 0.00 0.00 61 1016.7
20260901104527 81 198 4.0 7.0 0.00 0.00 0.00 61 1016.7
20260901104017 81 204 2.0 7.0 0.00 0.00 0.00 61 1016.7
20260901103518 81 194 3.0 7.0 0.00 0.00 0.00 60 1016.7
20260901103030 81 220 3.0 5.0 0.00 0.00 0.00 60 1016.6
20260901102512 81 190 2.0 6.0 0.00 0.00 0.00 60 1016.6
20260901102016 81 212 3.0 6.0 0.00 0.00 0.00 60 1016.5
20260901101524 81 195 2.0 4.0 0.00 0.00 0.00 59 1016.5
20260901101013 81 184 2.0 7.0 0.00 0.00 0.00 59 1016.6
20260901100516 81 156 1.0 7.0 0.00 0.00 0.00 59 1016.6
20260901100020 81 192 1.0 7.0 0.00 0.00 0.00 59 1016.5
20260901095517 82 201 3.0 7.0 0.00 0.00 0.00 58 1016.5
20260901095014 82 200 2.0 4.0 0.00 0.00 0.00 58 1016.5
20260901094521 82 208 1.0 4.0 0.00 0.00 0.00 58 1016.5
20260901094016 82 202 2.0 4.0 0.00 0.00 0.00 57 1016.5
20260901093516 82 204 2.0 6.0 0.00 0.00 0.00 57 1016.5
20260901093032 82 204 1.0 6.0 0.00 0.00 0.00 57 1016.5
20260901092516 82 195 2.0 6.0 0.00 0.00 0.00 57 1016.5
20260901092012 82 205 2.0 6.0 0.00 0.00 0.00 57 1016.5
20260901091531 82 206 2.0 6.0 0.00 0.00 0.00 57 1016.5
20260901091013 82 196 1.0 6.0 0.00 0.00 0.00 56 1016.4
20260901090512 82 205 2.0 4.0 0.00 0.00 0.00 57 1016.4
20260901090028 82 200 2.0 4.0 0.00 0.00 0.00 56 1016.4
20260901085517 82 210 1.0 4.0 0.00 0.00 0.00 56 1016.3
20260901085015 82 212 2.0 4.0 0.00 0.00 0.00 57 1016.3
20260901084530 82 202 2.0 4.0 0.00 0.00 0.00 57 1016.3
20260901084013 81 190 1.0 3.0 0.00 0.00 0.00 57 1016.3
20260901083515 81 185 0.0 4.0 0.00 0.00 0.00 57 1016.3
20260901083028 81 185 0.0 4.0 0.00 0.00 0.00 57 1016.3
20260901082512 81 187 2.0 4.0 0.00 0.00 0.00 58 1016.3
20260901082018 81 177 0.0 2.0 0.00 0.00 0.00 59 1016.2
20260901081527 81 177 0.0 1.0 0.00 0.00 0.00 60 1016.2
20260901081018 81 177 0.0 0.0 0.00 0.00 0.00 59 1016.2
20260901080518 81 177 0.0 0.0 0.00 0.00 0.00 59 1016.1
20260901080027 81 177 0.0 0.0 0.00 0.00 0.00 59 1016.1
20260901075515 81 177 0.0 0.0 0.00 0.00 0.00 59 1016.1
20260901075016 81 177 0.0 0.0 0.00 0.00 0.00 59 1016.1
20260901074521 82 177 0.0 0.0 0.00 0.00 0.00 58 1016.1
20260901074014 82 177 0.0 0.0 0.00 0.00 0.00 58 1016.1
20260901073513 82 177 0.0 0.0 0.00 0.00 0.00 57 1016.0
20260901073035 82 177 0.0 0.0 0.00 0.00 0.00 57 1016.0
20260901072516 82 177 0.0 1.0 0.00 0.00 0.00 56 1016.1
20260901072011 83 177 0.0 2.0 0.00 0.00 0.00 55 1016.0
20260901071532 83 177 0.0 2.0 0.00 0.00 0.00 55 1016.0
20260901071003 83 177 0.0 2.0 0.00 0.00 0.00 55 1016.0
20260901070511 83 177 1.0 2.0 0.00 0.00 0.00 54 1016.0
20260901070021 83 177 0.0 2.0 0.00 0.00 0.00 54 1016.0
20260901065503 83 177 0.0 3.0 0.00 0.00 0.00 53 1016.0
20260901065010 83 177 0.0 3.0 0.00 0.00 0.00 54 1016.1
20260901064514 83 177 1.0 3.0 0.00 0.00 0.00 53 1016.1
20260901064015 83 179 1.0 3.0 0.00 0.00 0.00 54 1016.2
20260901063511 84 181 0.0 2.0 0.00 0.00 0.00 53 1016.0
20260901063007 84 181 0.0 2.0 0.00 0.00 0.00 53 1016.0
20260901062512 83 181 0.0 3.0 0.00 0.00 0.00 53 1016.0
20260901062011 83 181 0.0 3.0 0.00 0.00 0.00 53 1016.0
20260901061504 83 181 1.0 3.0 0.00 0.00 0.00 54 1015.9
20260901061014 83 192 0.0 3.0 0.00 0.00 0.00 53 1015.9
20260901060505 83 195 1.0 3.0 0.00 0.00 0.00 53 1016.0
20260901060029 83 167 1.0 2.0 0.00 0.00 0.00 54 1015.9
20260901055514 83 167 1.0 2.0 0.00 0.00 0.00 54 1015.9
20260901055007 83 167 0.0 2.0 0.00 0.00 0.00 53 1015.9
20260901054527 83 167 0.0 2.0 0.00 0.00 0.00 53 1015.8
20260901054008 83 167 0.0 2.0 0.00 0.00 0.00 53 1015.8
20260901053516 84 167 1.0 2.0 0.00 0.00 0.00 52 1015.6
20260901053022 84 167 0.0 2.0 0.00 0.00 0.00 52 1015.6
20260901052507 84 167 0.0 2.0 0.00 0.00 0.00 51 1015.6
20260901052013 84 167 0.0 4.0 0.00 0.00 0.00 51 1015.6
20260901051519 85 167 1.0 4.0 0.00 0.00 0.00 51 1015.5
20260901051003 85 163 1.0 3.0 0.00 0.00 0.00 51 1015.4
20260901050513 85 162 0.0 3.0 0.00 0.00 0.00 51 1015.5
20260901050018 84 169 1.0 3.0 0.00 0.00 0.00 51 1015.5
20260901045515 84 173 2.0 4.0 0.00 0.00 0.00 52 1015.4
20260901045012 84 169 1.0 6.0 0.00 0.00 0.00 53 1015.5
20260901044514 83 168 3.0 6.0 0.00 0.00 0.00 54 1015.4
20260901044015 83 153 2.0 5.0 0.00 0.00 0.00 56 1015.4
20260901043513 82 166 0.0 2.0 0.00 0.00 0.00 56 1015.4
20260901043011 82 167 1.0 3.0 0.00 0.00 0.00 56 1015.4
20260901042516 82 167 2.0 3.0 0.00 0.00 0.00 57 1015.4
20260901042012 82 171 0.0 2.0 0.00 0.00 0.00 59 1015.3
20260901041533 82 171 0.0 0.0 0.00 0.00 0.00 58 1015.3
20260901041014 82 171 0.0 0.0 0.00 0.00 0.00 58 1015.3
20260901040507 82 171 0.0 0.0 0.00 0.00 0.00 58 1015.3
20260901040031 82 171 0.0 2.0 0.00 0.00 0.00 57 1015.2
20260901035513 83 171 0.0 2.0 0.00 0.00 0.00 56 1015.2
20260901035008 83 171 0.0 1.0 0.00 0.00 0.00 56 1015.3
20260901034530 83 170 0.0 1.0 0.00 0.00 0.00 56 1015.3
20260901034012 83 171 0.0 2.0 0.00 0.00 0.00 56 1015.2
20260901033519 83 171 0.0 2.0 0.00 0.00 0.00 56 1015.3
20260901033029 83 171 0.0 3.0 0.00 0.00 0.00 56 1015.2
20260901032508 83 171 0.0 3.0 0.00 0.00 0.00 56 1015.2
20260901032018 83 175 0.0 3.0 0.00 0.00 0.00 56 1015.2
20260901031524 83 202 0.0 0.0 0.00 0.00 0.00 56 1015.1
20260901031009 83 202 0.0 0.0 0.00 0.00 0.00 56 1015.1
20260901030517 84 202 0.0 2.0 0.00 0.00 0.00 56 1015.0
20260901030019 84 202 0.0 2.0 0.00 0.00 0.00 55 1014.9
20260901025516 84 202 0.0 1.0 0.00 0.00 0.00 55 1014.9
20260901025013 84 202 0.0 1.0 0.00 0.00 0.00 55 1014.9
20260901024518 84 202 0.0 2.0 0.00 0.00 0.00 55 1014.8
20260901024014 85 202 0.0 2.0 0.00 0.00 0.00 55 1014.7
20260901023511 85 202 0.0 2.0 0.00 0.00 0.00 53 1014.7
20260901023019 85 205 0.0 0.0 0.00 0.00 0.00 53 1014.7
20260901022515 85 205 0.0 0.0 0.00 0.00 0.00 53 1014.6
20260901022013 85 205 0.0 0.0 0.00 0.00 0.00 53 1014.6
20260901021532 86 205 0.0 0.0 0.00 0.00 0.00 53 1014.5
20260901021017 86 205 0.0 0.0 0.00 0.00 0.00 53 1014.5
20260901020509 86 205 0.0 0.0 0.00 0.00 0.00 52 1014.4
20260901020032 86 205 0.0 0.0 0.00 0.00 0.00 51 1014.3
20260901015517 87 205 0.0 0.0 0.00 0.00 0.00 50 1014.3
20260901015007 87 205 0.0 0.0 0.00 0.00 0.00 50 1014.3
20260901014536 87 205 0.0 0.0 0.00 0.00 0.00 49 1014.3
20260901014012 88 205 0.0 0.0 0.00 0.00 0.00 49 1014.3
20260901013518 88 205 0.0 0.0 0.00 0.00 0.00 48 1014.2
20260901013027 89 205 0.0 0.0 0.00 0.00 0.00 47 1014.2
20260901012510 89 205 0.0 1.0 0.00 0.00 0.00 46 1014.2
20260901012018 89 205 0.0 1.0 0.00 0.00 0.00 45 1014.1
20260901011527 90 205 0.0 0.0 0.00 0.00 0.00 45 1014.1
20260901011009 90 205 0.0 2.0 0.00 0.00 0.00 44 1014.1
20260901010517 91 205 0.0 2.0 0.00 0.00 0.00 44 1014.0
20260901010026 91 205 0.0 2.0 0.00 0.00 0.00 42 1014.0
20260901005517 92 205 0.0 2.0 0.00 0.00 0.00 42 1014.0
20260901005020 92 205 0.0 2.0 0.00 0.00 0.00 41 1013.9
20260901004523 93 205 0.0 2.0 0.00 0.00 0.00 40 1014.0
20260901004018 93 205 0.0 2.0 0.00 0.00 0.00 40 1014.0
20260901003513 94 205 0.0 2.0 0.00 0.00 0.00 40 1013.9
20260901003016 95 205 0.0 2.0 0.00 0.00 0.00 38 1014.0
20260901002519 95 205 1.0 3.0 0.00 0.00 0.00 37 1013.9
20260901002013 96 205 0.0 3.0 0.00 0.00 0.00 36 1013.9
20260901001514 96 212 1.0 3.0 0.00 0.00 0.00 36 1013.8
20260901001007 97 214 1.0 7.0 0.00 0.00 0.00 35 1013.9
20260901000514 97 222 1.0 7.0 0.00 0.00 0.00 34 1013.8
20260901000013 98 196 2.0 7.0 0.00 0.00 0.00 34 1013.8
20260831235503 98 234 1.0 6.0 0.00 0.00 0.00 34 1013.9
20260831235009 99 210 1.0 8.0 0.00 0.00 0.00 33 1013.8
20260831234531 99 241 4.0 8.0 0.00 0.00 0.00 32 1013.8
20260831234003 99 207 2.0 6.0 0.00 0.00 0.00 32 1013.8
20260831233508 100 194 2.0 9.0 0.00 0.00 0.00 1013.8
20260831233006 100 152 4.0 9.0 0.00 0.00 0.00 1013.8
20260831232511 100 184 4.0 12.0 0.00 0.00 0.00 32 1013.8
20260831232008 100 200 3.0 12.0 0.00 0.00 0.00 32 1013.7
20260831231504 101 198 3.0 7.0 0.00 0.00 0.00 1013.7
20260831231011 100 179 3.0 11.0 0.00 0.00 0.00 1013.7
20260831230505 100 191 6.0 11.0 0.00 0.00 0.00 32 1013.8
20260831230025 100 157 5.0 11.0 0.00 0.00 0.00 32 1013.8
20260831225512 101 216 5.0 11.0 0.00 0.00 0.00 31 1013.8
20260831225004 101 196 6.0 11.0 0.00 0.00 0.00 31 1013.8
20260831224527 101 216 4.0 10.0 0.00 0.00 0.00 31 1013.9
20260831224010 101 188 3.0 11.0 0.00 0.00 0.00 31 1013.9
20260831223516 101 185 6.0 12.0 0.00 0.00 0.00 31 1013.9
20260831223025 101 195 5.0 13.0 0.00 0.00 0.00 31 1013.9
20260831222508 101 205 5.0 14.0 0.00 0.00 0.00 30 1013.9
20260831222014 101 188 7.0 17.0 0.00 0.00 0.00 30 1014.0
20260831221533 101 233 6.0 17.0 0.00 0.00 0.00 30 1014.1
20260831221003 102 218 7.0 12.0 0.00 0.00 0.00 30 1014.1
20260831220515 102 243 2.0 12.0 0.00 0.00 0.00 31 1014.1
20260831220013 102 249 4.0 12.0 0.00 0.00 0.00 31 1014.1
20260831215503 102 224 6.0 11.0 0.00 0.00 0.00 30 1014.2
20260831215017 102 246 5.0 11.0 0.00 0.00 0.00 29 1014.2
20260831214514 102 257 2.0 10.0 0.00 0.00 0.00 29 1014.3
20260831214017 101 219 4.0 11.0 0.00 0.00 0.00 30 1014.3
20260831213512 101 270 6.0 12.0 0.00 0.00 0.00 30 1014.3
20260831213030 101 270 4.0 12.0 0.00 0.00 0.00 29 1014.3